EN

Hourly Weather Abha

Today, 1 December, Tuesday

Time Temperature Precipitation Wind Pressure Humidity
00:00 +21°C° 0.3 mm 1 mps 644 mmHg 83%
01:00 +20°C° 0.3 mm 1 mps 643 mmHg 83%
02:00 +20°C° 0.3 mm 1 mps 643 mmHg 82%
03:00 +20°C° 0 mm 1 mps 643 mmHg 82%
04:00 +20°C° 0 mm 1 mps 643 mmHg 83%
05:00 +20°C° 0 mm 1 mps 643 mmHg 84%
06:00 +19°C° 0 mm 1 mps 643 mmHg 85%
07:00 +20°C° 0 mm 1 mps 643 mmHg 81%
08:00 +20°C° 0 mm 2 mps 644 mmHg 77%
09:00 +20°C° 0 mm 3 mps 644 mmHg 74%
10:00 +21°C° 0 mm 3 mps 644 mmHg 71%
11:00 +22°C° 0 mm 3 mps 644 mmHg 69%
12:00 +22°C° 0 mm 3 mps 644 mmHg 66%
13:00 +22°C° 0.1 mm 3 mps 643 mmHg 65%
14:00 +22°C° 0.1 mm 4 mps 643 mmHg 65%
15:00 +22°C° 0 mm 4 mps 643 mmHg 65%
16:00 +22°C° 0.3 mm 3 mps 643 mmHg 69%
17:00 +21°C° 0.3 mm 2 mps 643 mmHg 73%
18:00 +21°C° 0.3 mm 1 mps 643 mmHg 77%
19:00 +21°C° 0 mm 1 mps 643 mmHg 78%
20:00 +21°C° 0 mm 1 mps 644 mmHg 79%
21:00 +21°C° 0 mm 1 mps 644 mmHg 81%
22:00 +21°C° 0.1 mm 1 mps 644 mmHg 80%
23:00 +21°C° 0.1 mm 1 mps 644 mmHg 80%

Tomorrow, 2 December, Wednesday

Time Temperature Precipitation Wind Pressure Humidity
00:00 +21°C° 0.1 mm 1 mps 644 mmHg 80%
01:00 +20°C° 0.1 mm 1 mps 644 mmHg 80%
02:00 +20°C° 0.1 mm 1 mps 643 mmHg 80%
03:00 +20°C° 0.1 mm 1 mps 643 mmHg 80%
04:00 +20°C° 0 mm 1 mps 643 mmHg 80%
05:00 +18°C° 0 mm 0 mps 643 mmHg 81%
06:00 +17°C° 0 mm 0 mps 644 mmHg 81%
07:00 +20°C° 0 mm 1 mps 644 mmHg 77%
08:00 +21°C° 0 mm 1 mps 645 mmHg 73%
09:00 +21°C° 0 mm 2 mps 645 mmHg 68%
10:00 +21°C° 0 mm 2 mps 645 mmHg 66%
11:00 +22°C° 0 mm 3 mps 645 mmHg 64%
12:00 +24°C° 0 mm 3 mps 644 mmHg 62%
13:00 +22°C° 0 mm 3 mps 644 mmHg 65%
14:00 +22°C° 0 mm 3 mps 644 mmHg 67%
15:00 +22°C° 0 mm 3 mps 643 mmHg 69%
16:00 +23°C° 0 mm 2 mps 643 mmHg 72%
17:00 +21°C° 0 mm 2 mps 643 mmHg 74%
18:00 +21°C° 0 mm 2 mps 643 mmHg 77%
19:00 +22°C° 0 mm 1 mps 644 mmHg 80%
20:00 +21°C° 0 mm 1 mps 644 mmHg 83%
21:00 +21°C° 0 mm 1 mps 644 mmHg 86%
22:00 +21°C° 0 mm 1 mps 644 mmHg 84%
23:00 +21°C° 0 mm 1 mps 644 mmHg 82%

Day after tomorrow, 3 December, Thursday

Time Temperature Precipitation Wind Pressure Humidity
00:00 +21°C° 0 mm 1 mps 644 mmHg 80%
01:00 +18°C° 0 mm 0 mps 644 mmHg 81%
02:00 +18°C° 0 mm 0 mps 643 mmHg 82%
03:00 +18°C° 0 mm 0 mps 643 mmHg 82%
04:00 +18°C° 0 mm 0 mps 643 mmHg 82%
05:00 +18°C° 0 mm 0 mps 644 mmHg 82%
06:00 +17°C° 0 mm 0 mps 644 mmHg 82%
07:00 +18°C° 0 mm 0 mps 645 mmHg 76%
08:00 +21°C° 0 mm 1 mps 645 mmHg 71%
09:00 +22°C° 0 mm 1 mps 646 mmHg 65%
10:00 +23°C° 0 mm 2 mps 645 mmHg 64%
11:00 +24°C° 0 mm 2 mps 645 mmHg 63%
12:00 +24°C° 0 mm 3 mps 645 mmHg 62%
13:00 +24°C° 0 mm 3 mps 644 mmHg 63%
14:00 +24°C° 0 mm 3 mps 644 mmHg 64%
15:00 +24°C° 0 mm 3 mps 644 mmHg 65%
16:00 +24°C° 0 mm 2 mps 644 mmHg 69%
17:00 +23°C° 0 mm 2 mps 644 mmHg 74%
18:00 +21°C° 0 mm 2 mps 644 mmHg 78%
19:00 +22°C° 0 mm 1 mps 644 mmHg 79%
20:00 +22°C° 0 mm 1 mps 644 mmHg 80%
21:00 +22°C° 0 mm 1 mps 644 mmHg 81%
22:00 +21°C° 0 mm 1 mps 644 mmHg 80%
23:00 +21°C° 0 mm 1 mps 644 mmHg 78%

4 December, Friday

Time Temperature Precipitation Wind Pressure Humidity
00:00 +21°C° 0 mm 1 mps 644 mmHg 77%
01:00 +21°C° 0.1 mm 1 mps 644 mmHg 77%
02:00 +19°C° 0.1 mm 0 mps 643 mmHg 76%
03:00 +19°C° 0.1 mm 0 mps 643 mmHg 75%
04:00 +18°C° 0 mm 0 mps 643 mmHg 77%
05:00 +18°C° 0 mm 0 mps 643 mmHg 78%
06:00 +18°C° 0 mm 0 mps 643 mmHg 79%
07:00 +21°C° 0 mm 1 mps 644 mmHg 74%
08:00 +21°C° 0 mm 1 mps 645 mmHg 69%
09:00 +22°C° 0 mm 1 mps 645 mmHg 64%
10:00 +23°C° 0 mm 2 mps 645 mmHg 62%
11:00 +24°C° 0 mm 2 mps 645 mmHg 60%
12:00 +24°C° 0 mm 3 mps 645 mmHg 57%
13:00 +25°C° 0 mm 3 mps 644 mmHg 58%
14:00 +25°C° 0 mm 3 mps 644 mmHg 58%
15:00 +25°C° 0 mm 3 mps 644 mmHg 58%
16:00 +24°C° 0 mm 2 mps 644 mmHg 63%
17:00 +23°C° 0 mm 2 mps 644 mmHg 67%
18:00 +23°C° 0 mm 2 mps 644 mmHg 72%
19:00 +22°C° 0 mm 1 mps 644 mmHg 75%
20:00 +22°C° 0 mm 1 mps 644 mmHg 78%
21:00 +20°C° 0 mm 0 mps 644 mmHg 81%
22:00 +20°C° 0 mm 0 mps 644 mmHg 77%
23:00 +20°C° 0 mm 0 mps 644 mmHg 74%

5 December, Saturday

Time Temperature Precipitation Wind Pressure Humidity
00:00 +20°C° 0 mm 0 mps 644 mmHg 70%
01:00 +19°C° 0 mm 0 mps 644 mmHg 68%
02:00 +19°C° 0 mm 0 mps 643 mmHg 66%
03:00 +19°C° 0 mm 0 mps 643 mmHg 64%
04:00 +18°C° 0 mm 0 mps 643 mmHg 66%
05:00 +18°C° 0 mm 0 mps 643 mmHg 67%
06:00 +18°C° 0 mm 0 mps 643 mmHg 69%
07:00 +21°C° 0 mm 1 mps 644 mmHg 65%
08:00 +22°C° 0 mm 1 mps 644 mmHg 61%
09:00 +23°C° 0 mm 1 mps 645 mmHg 57%
10:00 +23°C° 0 mm 2 mps 645 mmHg 57%
11:00 +24°C° 0 mm 2 mps 644 mmHg 56%
12:00 +24°C° 0 mm 3 mps 644 mmHg 55%
13:00 +25°C° 0 mm 3 mps 644 mmHg 54%
14:00 +25°C° 0 mm 3 mps 644 mmHg 53%
15:00 +25°C° 0 mm 3 mps 643 mmHg 53%
16:00 +24°C° 0 mm 3 mps 643 mmHg 58%
17:00 +24°C° 0 mm 2 mps 643 mmHg 63%
18:00 +23°C° 0 mm 2 mps 643 mmHg 68%
19:00 +21°C° 0 mm 2 mps 643 mmHg 71%
20:00 +22°C° 0 mm 1 mps 643 mmHg 74%
21:00 +22°C° 0 mm 1 mps 644 mmHg 77%
22:00 +21°C° 0 mm 1 mps 643 mmHg 77%
23:00 +21°C° 0 mm 1 mps 643 mmHg 76%

6 December, Sunday

Time Temperature Precipitation Wind Pressure Humidity
00:00 +21°C° 0 mm 1 mps 643 mmHg 76%
01:00 +19°C° 0 mm 0 mps 643 mmHg 75%
02:00 +18°C° 0 mm 0 mps 643 mmHg 75%
03:00 +18°C° 0 mm 0 mps 643 mmHg 74%
04:00 +18°C° 0 mm 0 mps 643 mmHg 75%
05:00 +18°C° 0 mm 0 mps 643 mmHg 77%
06:00 +17°C° 0 mm 0 mps 643 mmHg 78%
07:00 +20°C° 0 mm 1 mps 643 mmHg 72%
08:00 +21°C° 0 mm 1 mps 644 mmHg 66%
09:00 +22°C° 0 mm 1 mps 645 mmHg 61%
10:00 +23°C° 0 mm 2 mps 645 mmHg 59%
11:00 +24°C° 0 mm 3 mps 644 mmHg 58%
12:00 +24°C° 0 mm 3 mps 644 mmHg 57%
13:00 +24°C° 0.1 mm 3 mps 644 mmHg 58%
14:00 +24°C° 0.1 mm 3 mps 643 mmHg 58%
15:00 +23°C° 0.1 mm 4 mps 643 mmHg 59%
16:00 +22°C° 0.1 mm 3 mps 643 mmHg 64%
17:00 +23°C° 0.1 mm 2 mps 643 mmHg 68%
18:00 +21°C° 0.1 mm 2 mps 643 mmHg 73%
19:00 +21°C° 0 mm 1 mps 643 mmHg 75%
20:00 +21°C° 0 mm 1 mps 644 mmHg 78%
21:00 +21°C° 0 mm 1 mps 644 mmHg 80%
22:00 +21°C° 0 mm 1 mps 644 mmHg 79%
23:00 +21°C° 0 mm 1 mps 644 mmHg 79%
Show more